User: anonymous   Login
Location: Cosy Dell
(34.2789°N, 117.4537°W)
Time: 00:44:59
(UTC+00:00)
Language:

Cosmos 2369 - Orbit

View from above orbital plane
View from above orbital plane
View from above satellite
View from above satellite

Ground track
Ground track

The orbit data is extracted from the following two-line orbital elements,

1 26069U 00006A   20273.54477535 -.00000152 +00000-0 -55469-4 0  9996
2 26069 070.9986 004.4102 0012904 224.2389 135.7702 14.13416801329076
Epoch (UTC): 29 September 2020 13:04:28
Eccentricity: 0.0012904
inclination: 70.9986°
perigee height: 838 km
apogee height: 857 km
right ascension of ascending node: 4.4102°
argument of perigee: 224.2389°
revolutions per day: 14.13416801
mean anomaly at epoch: 135.7702°
orbit number at epoch: 32907

The dashed part of the orbit path shows where the satellite is in the earth's shadow,  

DLR